Regional Weather Roundup
Issued by NWS Goodland, KS

Home | Current Version | Previous Version | Graphics & Text | Print | Product List | Glossary On
Versions: 1 2 3 4 5 6 7 8 9 10 11 12 13 14 15 16 17 18 19 20 21 22 23 24 25 26 27 28 29 30 31 32 33 34 35 36 37 38 39 40 41 42 43 44 45 46 47 48 49 50
000
ASUS43 KGLD 252059
RWRGLD

GOODLAND FORECAST AREA HOURLY WEATHER ROUNDUP
NATIONAL WEATHER SERVICE GOODLAND KS
300 PM MDT MON JUL 25 2016

...OFFICIAL OBSERVATIONS...

CITY           SKY/WX    TMP DP  RH WIND       PRES   REMARKS
GOODLAND KS    MOSUNNY   84  63  49 S16       30.15F
HILL CITY KS   MOSUNNY   87  67  51 E7        30.09F
IMPERIAL NEB   SUNNY     89  58  34 SE21G28   30.10F
MCCOOK NEB     SUNNY     89  64  43 SE16      30.09F
AKRON CO       SUNNY     83  60  45 SE25G32   30.15F
BURLINGTON CO  SUNNY     80  63  55 SE20      30.17F
LIMON CO       SUNNY     86  55  34 SE18G32   30.19F
$$

...UNOFFICIAL OBSERVATIONS...

CITY           SKY/WX    TMP DP  RH WIND       PRES   REMARKS
COLBY KS       SUNNY     88  66  48 E12G20    30.14F
LENORA KS        N/A     85  32  15 MISG        N/A
NORTON KS      SUNNY     88  61  40 SE10G18   30.09F
YUMA CO          N/A     83  65  55 SW6         N/A
$$




USA.gov is the U.S. government's official web portal to all federal, state and local government web resources and services.